[[{"header":{"parameterUnit":"m.s-1","parameterCategory":1,"la1":30.2991,"la2":30.254,"lo1":-89.0895,"lo2":-89.0444,"dy":0.0017,"dx":0.0017,"nx":28,"ny":28,"refTime":"2023-08-21T03:00:00:Z","depth":0,"parameterNumber":2,"parameterNumberName":"U-component_of_WINDS"},"data":[0,0,0,0,0,0,0,0,0,0,0,0,0,0,0,0,0,0,0,0,0,0,0,0,0,0,0,0,0,0,0,0,0,0,0,0,0,0,0,0,0,0,0,0,0,0,0,0,0,0,0,0,0,0,0,0,0,0,-4.8693,-4.8693,0,-4.8745,-4.8745,-4.8746,-4.8643,-4.864,-4.8636,-4.8633,-4.8684,-4.8688,-4.8693,0,0,0,0,0,0,0,0,0,0,0,0,0,-4.8503,-4.8507,-4.8693,-4.8693,-4.8694,-4.8745,-4.8745,-4.8746,-4.8644,-4.864,-4.8635,-4.8632,-4.8682,-4.8688,-4.8693,0,0,0,0,0,0,0,0,0,0,0,0,0,-4.8573,-4.8508,-4.8693,-4.8649,-4.8646,-4.8745,-4.8745,-4.8746,-4.8644,-4.8639,-4.8634,-4.863,-4.8681,-4.8687,-4.8694,-4.8837,0,0,-4.8714,-4.8717,0,0,0,0,0,0,0,0,-4.8569,-4.858,-4.8655,-4.8652,-4.8649,-4.8682,-4.8697,-4.8776,-4.8646,-4.8645,-4.8633,-4.8627,-4.8687,-4.8693,-4.8714,-4.8839,-4.8841,-4.8715,-4.8719,-4.8722,-4.8724,0,0,0,0,0,0,0,-4.8564,-4.8577,-4.8713,-4.8656,-4.8652,-4.8626,-4.8631,-4.8711,-4.8694,-4.8645,-4.8637,-4.8645,-4.8685,-4.8708,-4.8714,-4.8842,-4.8715,-4.8721,-4.8725,-4.8728,-4.9086,-4.9091,0,0,0,0,0,0,-4.8565,-4.8574,-4.8711,-4.8715,-4.8596,-4.8634,-4.8639,-4.8677,-4.8693,-4.869,-4.8649,-4.864,-4.8699,-4.8707,-4.8716,-4.8883,-4.8722,-4.8728,-4.8732,-4.9081,-4.9087,-4.9093,0,0,0,0,0,0,-4.8562,-4.8579,-4.8709,-4.8642,-4.8657,-4.8642,-4.8686,-4.868,-4.8703,-4.8696,-4.8692,-4.8676,-4.8695,-4.8706,-4.8807,-4.8883,-4.8731,-4.8737,-4.9074,-4.9083,-4.909,-4.9219,0,0,0,0,0,0,-4.8557,-4.8578,-4.8632,-4.8644,-4.8661,-4.8801,-4.869,-4.8685,-4.8715,-4.8704,-4.872,-4.8718,-4.8692,-4.8798,-4.8814,-4.889,-4.8743,-4.9067,-4.9078,-4.9088,-4.9208,-4.923,-4.925,0,0,0,0,0,-4.855,-4.8666,-4.8636,-4.8653,-4.8729,-4.8806,-4.8815,-4.8783,-4.8722,-4.8776,-4.8772,-4.8718,-4.8873,-4.8809,-4.8826,-4.8905,-4.9062,-4.9075,-4.9087,-4.9198,-4.9226,-4.9249,0,0,0,0,0,0,-4.8662,-4.8667,-4.8633,-4.8756,-4.8782,-4.8788,-4.8855,-4.8814,-4.8856,-4.8843,-4.8801,-4.8806,-4.8915,-4.892,-4.8849,-4.9044,-4.8957,-4.8974,-4.9036,-4.9062,-4.9083,-4.9078,-4.8748,0,0,0,0,0,-4.8701,-4.8764,-4.8764,-4.8873,-4.8888,-4.887,-4.8902,-4.8876,-4.8899,-4.8909,-4.8912,-4.8937,-4.8991,-4.9027,-4.9077,-4.9209,-4.921,-4.9272,-4.9293,-4.931,-4.9324,-4.9393,-4.942,-4.9134,-4.9134,-4.9133,0,0,-4.8782,-4.8793,-4.8835,-4.8896,-4.8912,-4.8977,-4.8879,-4.8952,-4.8999,-4.892,-4.9015,-4.9019,-4.9043,-4.9161,-4.9212,-4.9168,-4.9404,-4.9326,-4.934,-4.9344,-4.9409,-4.9436,-4.946,-4.9142,-4.914,-4.9139,0,0,-4.8963,-4.8978,-4.9069,-4.9088,-4.9115,-4.9102,-4.9125,-4.9138,-4.9138,-4.9233,-4.9175,-4.923,-4.9325,-4.9345,-4.9367,-4.9557,-4.9509,-4.9575,-4.9684,-4.9752,-4.9774,-4.9794,-4.986,-4.9885,-4.9589,-4.959,-4.959,0,-4.9059,-4.9156,-4.9122,-4.9199,-4.9227,-4.916,-4.9252,-4.9271,-4.9313,-4.9333,-4.9284,-4.9402,-4.9414,-4.9534,-4.9581,-4.9602,-4.9625,-4.9571,-4.9774,-4.9794,-4.9812,-4.9874,-4.9899,-4.9597,-4.9596,-4.9596,-4.9595,0,-4.9273,-4.9341,-4.9411,-4.9454,-4.949,-4.9575,-4.9553,-4.9594,-4.9565,-4.9558,-4.9656,-4.9668,-4.9719,-4.9746,-4.9718,-4.9863,-4.9835,-4.9781,-4.9692,-4.9847,-4.9905,-4.9929,-4.9608,-4.9605,-4.9603,-4.9601,0,0,-4.9522,-4.9546,-4.9572,-4.959,-4.9616,-4.9667,-4.9748,-4.9799,-4.9834,-4.9866,-4.9932,-5.0014,-4.9965,-4.9991,-4.9965,-5.0025,-5.0173,-4.9963,-4.9963,-5.0,-5.0331,-5.037,-5.0398,-5.0142,-5.0147,-5.015,-5.0329,0,-4.9699,-4.984,-4.9812,-4.9949,-5.001,-4.9948,-5.0019,-5.0042,-5.0038,-5.0089,-5.0084,-5.0143,-5.0074,-5.0089,-5.0147,-5.0143,-5.0238,-5.013,-5.0202,-5.0205,-5.0195,-5.0429,-5.047,-5.0637,-5.0351,-5.0355,-5.0358,0,-4.9924,-4.9965,-5.0108,-5.0123,-5.0148,-5.0212,-5.0256,-5.0306,-5.0331,-5.0324,-5.0354,-5.0317,-5.0397,-5.031,-5.0419,-5.0346,-5.0374,-5.0378,-5.0383,-5.0386,-5.0289,-5.0436,-5.069,-5.0714,-5.0394,-5.0391,-5.0388,0,-5.0089,-5.018,-5.0277,-5.0295,-5.0316,-5.0362,-5.0373,-5.0393,-5.0425,-5.0464,-5.0484,-5.0532,-5.0557,-5.0595,-5.0572,-5.0511,-5.0685,-5.0596,-5.0679,-5.068,-5.0716,-5.0714,-5.0976,-5.0739,-5.0739,-5.0738,-5.0738,0,-5.0289,-5.0378,-5.0351,-5.0411,-5.0509,-5.0477,-5.0575,-5.0579,-5.0597,-5.0656,-5.0606,-5.0662,-5.0629,-5.0682,-5.0665,-5.0757,-5.077,-5.0765,-5.0759,-5.0768,-5.0769,-5.0784,-5.0771,-5.0745,-5.0744,-5.0742,-5.0741,0,-5.0488,-5.0474,-5.0576,-5.0588,-5.0593,-5.0665,-5.0675,-5.073,-5.0723,-5.0798,-5.0814,-5.0803,-5.0863,-5.0845,-5.0909,-5.0898,-5.1014,-5.0994,-5.1006,-5.1,-5.1084,-5.1076,-5.1363,-5.1398,-5.1141,-5.1144,-5.1146,0,-5.0615,-5.0682,-5.0702,-5.0738,-5.0753,-5.0812,-5.0845,-5.0816,-5.0853,-5.0887,-5.0938,-5.0994,-5.1037,-5.1136,-5.1133,-5.1183,-5.1162,-5.126,-5.1169,-5.1176,-5.1161,-5.1156,-5.1162,-5.1277,-5.128,-5.1282,-5.1284,0,-5.0841,-5.0831,-5.088,-5.0929,-5.0969,-5.1006,-5.1037,-5.1069,-5.1043,-5.1086,-5.1148,-5.1181,-5.1248,-5.1304,-5.1349,-5.1359,-5.1318,-5.1313,-5.1335,-5.1343,-5.1347,-5.1344,-5.1053,-5.1306,-5.1304,-5.1302,-5.1301,-5.13,-5.1006,-5.1063,-5.1086,-5.1143,-5.1164,-5.1195,-5.1247,-5.1248,-5.1299,-5.1351,-5.1332,-5.1402,-5.1425,-5.1482,-5.1498,-5.1552,-5.1515,-5.1547,-5.1554,-5.1562,-5.1572,-5.1341,-5.1561,-5.156,-5.156,-5.1559,-5.1559,0,-5.1228,-5.124,-5.1293,-5.1339,-5.1384,-5.1342,-5.1375,-5.1415,-5.1478,-5.1504,-5.1548,-5.1618,-5.1673,-5.1675,-5.1726,-5.1769,-5.1751,-5.1783,-5.1778,-5.1781,-5.1603,-5.1578,-5.1797,-5.1797,-5.1797,-5.1797,-5.1796,-5.1796,-5.1348,-5.1442,-5.1435,-5.1538,-5.155,-5.1619,-5.1641,-5.1669,-5.1689,-5.177,-5.1816,-5.1817,-5.1834,-5.1886,-5.1934,-5.1933,-5.1953,-5.1992,-5.1984,-5.1817,-5.1794,-5.1771,-5.1747,-5.1997,-5.1998,-5.2157,-5.2158,-5.216]},{"header":{"parameterUnit":"m.s-1","parameterCategory":1,"la1":30.2991,"la2":30.254,"lo1":-89.0895,"lo2":-89.0444,"dy":0.0017,"dx":0.0017,"nx":28,"ny":28,"refTime":"2023-08-21T03:00:00:Z","depth":0,"parameterNumber":3,"parameterNumberName":"V-component_of_WINDS"},"data":[0,0,0,0,0,0,0,0,0,0,0,0,0,0,0,0,0,0,0,0,0,0,0,0,0,0,0,0,0,0,0,0,0,0,0,0,0,0,0,0,0,0,0,0,0,0,0,0,0,0,0,0,0,0,0,0,0,0,1.614,1.614,0,1.615,1.615,1.615,1.6132,1.6131,1.613,1.613,1.6138,1.6139,1.6139,0,0,0,0,0,0,0,0,0,0,0,0,0,1.6106,1.6106,1.614,1.614,1.614,1.615,1.615,1.615,1.6132,1.6131,1.613,1.6129,1.6138,1.6139,1.6139,0,0,0,0,0,0,0,0,0,0,0,0,0,1.6118,1.6106,1.614,1.6132,1.6132,1.615,1.615,1.615,1.6132,1.6131,1.613,1.6129,1.6137,1.6138,1.614,1.6165,0,0,1.6143,1.6144,0,0,0,0,0,0,0,0,1.6118,1.612,1.6133,1.6133,1.6132,1.6139,1.6141,1.6155,1.6132,1.6132,1.613,1.6129,1.6139,1.614,1.6143,1.6165,1.6166,1.6143,1.6144,1.6144,1.6145,0,0,0,0,0,0,0,1.6117,1.6119,1.6144,1.6134,1.6133,1.6128,1.6129,1.6143,1.614,1.6132,1.613,1.6132,1.6138,1.6142,1.6144,1.6166,1.6143,1.6144,1.6145,1.6145,1.6211,1.6212,0,0,0,0,0,0,1.6117,1.6119,1.6144,1.6144,1.6123,1.613,1.6131,1.6138,1.614,1.614,1.6133,1.6131,1.6141,1.6142,1.6144,1.6174,1.6144,1.6146,1.6146,1.621,1.6211,1.6212,0,0,0,0,0,0,1.6116,1.6119,1.6143,1.6131,1.6134,1.6131,1.6139,1.6138,1.6142,1.6141,1.614,1.6137,1.614,1.6142,1.616,1.6174,1.6146,1.6147,1.6209,1.621,1.6212,1.6235,0,0,0,0,0,0,1.6115,1.6119,1.6129,1.6131,1.6135,1.616,1.614,1.6139,1.6145,1.6142,1.6145,1.6145,1.614,1.6159,1.6162,1.6175,1.6148,1.6207,1.6209,1.6211,1.6233,1.6237,1.6241,0,0,0,0,0,1.6114,1.6134,1.6129,1.6132,1.6146,1.6161,1.6162,1.6157,1.6146,1.6155,1.6155,1.6144,1.6173,1.6161,1.6164,1.6178,1.6206,1.6209,1.6211,1.6231,1.6236,1.6241,0,0,0,0,0,0,1.6132,1.6134,1.6129,1.615,1.6156,1.6157,1.6169,1.6162,1.617,1.6167,1.616,1.6161,1.618,1.6181,1.6168,1.6204,1.6188,1.6191,1.6202,1.6207,1.6211,1.6209,1.6149,0,0,0,0,0,1.6138,1.615,1.6152,1.617,1.6174,1.6171,1.6177,1.6173,1.6177,1.6179,1.618,1.6184,1.6194,1.6201,1.621,1.6234,1.6234,1.6245,1.6249,1.6253,1.6255,1.6268,1.6273,1.622,1.622,1.622,0,0,1.6151,1.6154,1.6162,1.6174,1.6177,1.619,1.6173,1.6186,1.6195,1.6181,1.6198,1.6199,1.6204,1.6226,1.6235,1.6227,1.627,1.6255,1.6258,1.6258,1.6271,1.6276,1.6281,1.6221,1.6221,1.6221,0,0,1.6182,1.6185,1.6202,1.6206,1.6212,1.6211,1.6215,1.6219,1.6219,1.6237,1.6227,1.6238,1.6255,1.6259,1.6264,1.6299,1.629,1.6302,1.6322,1.6335,1.6339,1.6343,1.6355,1.636,1.6305,1.6305,1.6305,0,1.6197,1.6215,1.6211,1.6225,1.6231,1.6221,1.6238,1.6242,1.6251,1.6255,1.6246,1.6269,1.6271,1.6294,1.6303,1.6307,1.6311,1.6301,1.6339,1.6343,1.6346,1.6358,1.6362,1.6306,1.6306,1.6306,1.6306,0,1.6234,1.6247,1.6259,1.6269,1.6277,1.6293,1.6291,1.6299,1.6295,1.6295,1.6314,1.6317,1.6327,1.6333,1.6328,1.6355,1.635,1.634,1.6324,1.6353,1.6364,1.6368,1.6308,1.6308,1.6307,1.6307,0,0,1.6272,1.6282,1.6286,1.6291,1.6299,1.6309,1.6325,1.6336,1.6343,1.635,1.6363,1.6379,1.6371,1.6376,1.6373,1.6385,1.6412,1.6374,1.6374,1.638,1.6443,1.6449,1.6454,1.6407,1.6408,1.6409,1.6442,0,1.6302,1.633,1.6328,1.6354,1.6366,1.6358,1.6372,1.6378,1.6379,1.639,1.6391,1.6403,1.6391,1.6394,1.6406,1.6407,1.6425,1.6404,1.6419,1.6419,1.6417,1.646,1.6466,1.6498,1.6447,1.6447,1.6448,0,1.6339,1.6349,1.6377,1.6385,1.639,1.6402,1.6413,1.6424,1.6431,1.6431,1.6438,1.6433,1.6449,1.6434,1.6457,1.6443,1.6449,1.6451,1.6452,1.6452,1.6434,1.646,1.6507,1.6512,1.6454,1.6454,1.6453,0,1.6364,1.6385,1.6404,1.6409,1.6418,1.6427,1.6432,1.6438,1.6446,1.6455,1.646,1.6471,1.6477,1.6486,1.6484,1.6473,1.6507,1.6492,1.6507,1.6507,1.6513,1.6513,1.6561,1.6519,1.6519,1.6519,1.6519,0,1.6397,1.6414,1.6416,1.6428,1.6447,1.6446,1.6465,1.6468,1.6475,1.6487,1.6481,1.6493,1.649,1.6502,1.6501,1.652,1.6523,1.6523,1.6522,1.6523,1.6523,1.6525,1.6523,1.652,1.652,1.652,1.652,0,1.6427,1.6429,1.645,1.6458,1.6461,1.6475,1.6481,1.6493,1.6495,1.651,1.6514,1.6516,1.653,1.653,1.6545,1.6545,1.6568,1.6565,1.6565,1.6564,1.658,1.6578,1.6631,1.6638,1.6592,1.6593,1.6593,0,1.6447,1.646,1.6471,1.6479,1.6485,1.6498,1.6506,1.6506,1.6514,1.6525,1.6536,1.6549,1.656,1.6582,1.6585,1.6597,1.6594,1.6612,1.6596,1.6596,1.6594,1.6593,1.6594,1.6614,1.6615,1.6615,1.6616,0,1.6483,1.6484,1.6496,1.6509,1.652,1.653,1.6539,1.6547,1.6547,1.6558,1.6572,1.6581,1.6598,1.6611,1.6623,1.6627,1.6622,1.6621,1.6625,1.6626,1.6625,1.6625,1.6573,1.662,1.6619,1.6619,1.6619,1.6619,1.6508,1.652,1.653,1.6544,1.6552,1.6561,1.6573,1.6577,1.659,1.6604,1.6603,1.662,1.6628,1.6644,1.665,1.6663,1.6656,1.6662,1.6664,1.6665,1.6667,1.6625,1.6665,1.6665,1.6665,1.6665,1.6665,0,1.6543,1.6549,1.6563,1.6577,1.6589,1.6585,1.6595,1.6605,1.662,1.6629,1.6641,1.6658,1.6672,1.6677,1.6691,1.67,1.6698,1.6703,1.6702,1.6703,1.6672,1.6666,1.6705,1.6705,1.6705,1.6705,1.6705,1.6705,1.6562,1.6582,1.6585,1.661,1.6616,1.6633,1.664,1.6649,1.6656,1.6676,1.6688,1.6692,1.67,1.6714,1.6727,1.6728,1.6733,1.674,1.674,1.6709,1.6705,1.6701,1.6696,1.6741,1.6741,1.677,1.677,1.6771]}]]